Flag Weather past 2 weeks in Trondheim, Norway

Now
27 °F

Clear.


Feels Like: 21 °F
Forecast: 30 / 35 °F
Wind: 5 mph from Southeast

Location: Trondheim / Vaernes

Current Time: Nov 28, 2014 at 9:46:29 PM

Latest Report: Nov 28, 2014 at 8:50 PM


Visibility: 10 mi

Pressure: 30.33 "Hg

Humidity: 80%

Dew point: 21 °F

Location of TrondheimLocation

Historic Weather in Trondheim — Graph

°F

Trondheim temperature yesterday

Maximum temperature yesterday: 39 °F (at 4:50 PM)
Minimum temperature yesterday: 30 °F (at 12:20 AM)
Average temperature yesterday: 35 °F

Past Weeks' High & Low Weather Summary

 TemperatureHumidityPressure
High48 °F (Nov 14, 7:20 AM)100% (Nov 22, 12:50 AM)30.48 "Hg (Nov 22, 12:50 AM)
Low19 °F (Nov 22, 6:50 AM)53% (Nov 15, 5:50 PM)29.68 "Hg (Nov 24, 4:50 AM)
Average36 °F76%30.19 "Hg
* Reported Nov 13 8:20 PM — Nov 28 8:50 PM, Trondheim, Weather by CustomWeather, © 2014

Note: Actual official high and low records may vary slightly from our data, if they occured in-between our weather recording intervals... More about our weather records

Advertising

Trondheim weather history for previous 24 hours

 ConditionsComfort  
Time TempWeatherWind HumidityBarometerVisibility
8:50 PM
Nov 28
27 °FClear.5 mph80%30.33 "Hg10 mi
8:20 PM27 °FClear.5 mph80%30.33 "Hg10 mi
7:50 PM28 °FClear.5 mph74%30.33 "Hg10 mi
7:20 PM27 °FClear.5 mph80%30.33 "Hg10 mi
6:50 PM27 °FClear.6 mph80%30.33 "Hg10 mi
6:20 PM27 °FClear.5 mph80%30.33 "Hg10 mi
5:50 PM28 °FPassing clouds.3 mph80%30.33 "HgN/A
5:20 PM27 °FClear.7 mph80%30.33 "Hg10 mi
4:50 PM28 °FClear.7 mph74%30.30 "Hg10 mi
4:20 PM30 °FClear.8 mph75%30.30 "Hg10 mi
3:50 PM28 °FClear.7 mph80%30.30 "Hg10 mi
3:20 PM32 °FPassing clouds.6 mph69%30.30 "HgN/A
2:50 PM32 °FClear.5 mph64%30.30 "Hg10 mi
2:20 PM34 °FSunny.5 mph60%30.27 "Hg10 mi
1:50 PM36 °FSunny.6 mph56%30.27 "Hg10 mi
1:20 PM36 °FSunny.7 mph56%30.27 "Hg10 mi
12:50 PM36 °FSunny.6 mph60%30.27 "Hg10 mi
12:20 PM36 °FSunny.5 mph60%30.27 "Hg10 mi
11:50 AM36 °FSunny.6 mph60%30.27 "Hg10 mi
11:20 AM36 °FSunny.5 mph60%30.27 "Hg10 mi
10:50 AM36 °FSunny.5 mph60%30.27 "Hg10 mi
10:20 AM36 °FSunny.6 mph60%30.24 "Hg10 mi
9:50 AM36 °FSunny.5 mph60%30.24 "Hg10 mi
9:20 AM36 °FSunny.3 mph60%30.24 "Hg10 mi
8:50 AM37 °FClear.5 mph56%30.21 "Hg10 mi
7:50 AM37 °FClear.7 mph60%30.21 "Hg10 mi
7:20 AM36 °FClear.5 mph60%30.18 "Hg10 mi
6:50 AM36 °FClear.5 mph60%30.18 "Hg10 mi
6:20 AM36 °FClear.9 mph60%30.18 "Hg10 mi
5:50 AM36 °FClear.6 mph60%30.18 "Hg10 mi
5:20 AM37 °FClear.6 mph56%30.15 "Hg10 mi
3:50 AM36 °FClear.9 mph65%30.15 "Hg10 mi
2:50 AM36 °FClear.10 mph70%30.15 "Hg10 mi
1:50 AM37 °FClear.8 mph65%30.15 "Hg10 mi
12:50 AM39 °FClear.8 mph61%30.15 "Hg10 mi
11:50 PM
Nov 27
36 °FClear.3 mph81%30.15 "Hg10 mi
11:20 PM36 °FClear.1 mph75%30.15 "Hg10 mi
10:50 PM37 °FPassing clouds.5 mph70%30.12 "HgN/A
10:20 PM39 °FClear.7 mph65%30.12 "Hg10 mi
9:50 PM36 °FClear.5 mph81%30.12 "Hg10 mi
9:20 PM34 °FClear.5 mph93%30.12 "Hg10 mi
Weather by CustomWeather, © 2014

See weather overviewHow to use our weather pages